Time,TemperatureF,DewpointF,PressureIn,WindDirection,WindDirectionDegrees,WindSpeedMPH,WindSpeedGustMPH,Humidity,HourlyPrecipIn,Conditions,Clouds,dailyrainin,SoftwareType,DateUTC
2014-01-15 00:01:00,34.4,29.8,29.83,East,96,6.0,14.0,83,0.00,,RMK 146.475 MHz QRV !SN!,0.00,WUHU216DAVISVP2,2014-01-15 05:01:00,
2014-01-15 00:06:00,33.9,28.7,29.83,East,84,3.0,14.0,81,0.00,,RMK 146.475 MHz QRV !SN!,0.00,WUHU216DAVISVP2,2014-01-15 05:06:00,
2014-01-15 00:11:00,33.6,28.1,29.83,ENE,77,3.0,13.0,80,0.00,,RMK 146.475 MHz QRV !SN!,0.00,WUHU216DAVISVP2,2014-01-15 05:11:00,
2014-01-15 00:16:00,33.5,28.3,29.84,North,5,3.0,12.0,81,0.00,,RMK 146.475 MHz QRV !SN!,0.00,WUHU216DAVISVP2,2014-01-15 05:16:00,
2014-01-15 00:21:00,33.4,28.2,29.84,East,97,4.0,11.0,81,0.00,,RMK 146.475 MHz QRV !SN!,0.00,WUHU216DAVISVP2,2014-01-15 05:21:00,
2014-01-15 00:26:00,33.3,28.1,29.84,East,91,3.0,9.0,81,0.00,,RMK 146.475 MHz QRV !SN!,0.00,WUHU216DAVISVP2,2014-01-15 05:26:00,
2014-01-15 00:31:00,33.1,27.3,29.84,West,280,3.0,12.0,79,0.00,,RMK 146.475 MHz QRV !SN!,0.00,WUHU216DAVISVP2,2014-01-15 05:31:00,
2014-01-15 00:36:00,32.9,27.1,29.84,East,86,3.0,13.0,79,0.00,,RMK 146.475 MHz QRV !SN!,0.00,WUHU216DAVISVP2,2014-01-15 05:36:00,
2014-01-15 00:41:00,32.7,26.3,29.84,ESE,116,5.0,15.0,77,0.00,,RMK 146.475 MHz QRV !SN!,0.00,WUHU216DAVISVP2,2014-01-15 05:41:00,
2014-01-15 00:46:00,32.1,24.5,29.84,ENE,60,9.0,15.0,73,0.00,,RMK 146.475 MHz QRV !SN!,0.00,WUHU216DAVISVP2,2014-01-15 05:46:00,
2014-01-15 00:51:00,31.7,23.8,29.85,NE,47,4.0,14.0,72,0.00,,RMK 146.475 MHz QRV !SN!,0.00,WUHU216DAVISVP2,2014-01-15 05:51:00,
2014-01-15 00:56:00,31.3,23.4,29.85,NNE,22,6.0,19.0,72,0.00,,RMK 146.475 MHz QRV !SN!,0.00,WUHU216DAVISVP2,2014-01-15 05:56:00,
2014-01-15 01:01:00,31.0,23.4,29.84,ENE,61,6.0,19.0,73,0.00,,RMK 146.475 MHz QRV !SN!,0.00,WUHU216DAVISVP2,2014-01-15 06:01:00,
2014-01-15 01:06:00,30.8,23.5,29.84,North,352,3.0,18.0,74,0.00,,RMK 146.475 MHz QRV !SN!,0.00,WUHU216DAVISVP2,2014-01-15 06:06:00,
2014-01-15 01:11:00,30.6,23.3,29.83,ENE,72,2.0,18.0,74,0.00,,RMK 146.475 MHz QRV !SN!,0.00,WUHU216DAVISVP2,2014-01-15 06:11:00,
2014-01-15 01:16:00,30.5,23.6,29.84,East,93,1.0,16.0,75,0.00,,RMK 146.475 MHz QRV !SN!,0.00,WUHU216DAVISVP2,2014-01-15 06:16:00,
2014-01-15 01:21:00,30.3,23.1,29.84,ENE,74,2.0,15.0,74,0.00,,RMK 146.475 MHz QRV !SN!,0.00,WUHU216DAVISVP2,2014-01-15 06:21:00,
2014-01-15 01:26:00,30.1,22.9,29.84,SE,129,3.0,15.0,74,0.00,,RMK 146.475 MHz QRV !SN!,0.00,WUHU216DAVISVP2,2014-01-15 06:26:00,
2014-01-15 01:31:00,30.0,22.8,29.85,NE,51,6.0,15.0,74,0.00,,RMK 146.475 MHz QRV !SN!,0.00,WUHU216DAVISVP2,2014-01-15 06:31:00,
2014-01-15 01:36:00,29.8,22.6,29.85,NNE,30,5.0,15.0,74,0.00,,RMK 146.475 MHz QRV !SN!,0.00,WUHU216DAVISVP2,2014-01-15 06:36:00,
2014-01-15 01:41:00,29.8,22.6,29.85,ENE,70,2.0,13.0,74,0.00,,RMK 146.475 MHz QRV !SN!,0.00,WUHU216DAVISVP2,2014-01-15 06:41:00,
2014-01-15 01:46:00,29.8,22.6,29.85,ENE,63,7.0,13.0,74,0.00,,RMK 146.475 MHz QRV !SN!,0.00,WUHU216DAVISVP2,2014-01-15 06:46:00,
2014-01-15 01:51:00,29.8,22.6,29.85,ENE,70,4.0,15.0,74,0.00,,RMK 146.475 MHz QRV !SN!,0.00,WUHU216DAVISVP2,2014-01-15 06:51:00,
2014-01-15 01:56:00,29.8,22.8,29.85,NE,40,2.0,15.0,75,0.00,,RMK 146.475 MHz QRV !SN!,0.00,WUHU216DAVISVP2,2014-01-15 06:56:00,
2014-01-15 02:01:00,29.8,22.5,29.85,East,81,6.0,14.0,74,0.00,,RMK 146.475 MHz QRV !SN!,0.00,WUHU216DAVISVP2,2014-01-15 07:01:00,
2014-01-15 02:06:00,29.7,21.4,29.85,East,96,11.0,14.0,71,0.00,,RMK 146.475 MHz QRV !SN!,0.00,WUHU216DAVISVP2,2014-01-15 07:06:00,
2014-01-15 02:11:00,29.5,21.3,29.85,East,101,3.0,14.0,71,0.00,,RMK 146.475 MHz QRV !SN!,0.00,WUHU216DAVISVP2,2014-01-15 07:11:00,
2014-01-15 02:16:00,29.3,21.1,29.86,ENE,60,5.0,13.0,71,0.00,,RMK 146.475 MHz QRV !SN!,0.00,WUHU216DAVISVP2,2014-01-15 07:16:00,
2014-01-15 02:21:00,29.2,20.7,29.86,East,90,3.0,14.0,70,0.00,,RMK 146.475 MHz QRV !SN!,0.00,WUHU216DAVISVP2,2014-01-15 07:21:00,
2014-01-15 02:26:00,29.0,20.5,29.86,ENE,68,8.0,14.0,70,0.00,,RMK 146.475 MHz QRV !SN!,0.00,WUHU216DAVISVP2,2014-01-15 07:26:00,
2014-01-15 02:31:00,29.0,20.5,29.86,NE,54,3.0,13.0,70,0.00,,RMK 146.475 MHz QRV !SN!,0.00,WUHU216DAVISVP2,2014-01-15 07:31:00,
2014-01-15 02:36:00,28.9,20.7,29.86,ENE,59,7.0,14.0,71,0.00,,RMK 146.475 MHz QRV !SN!,0.00,WUHU216DAVISVP2,2014-01-15 07:36:00,
2014-01-15 02:41:00,28.9,20.7,29.86,East,79,5.0,14.0,71,0.00,,RMK 146.475 MHz QRV !SN!,0.00,WUHU216DAVISVP2,2014-01-15 07:41:00,
2014-01-15 02:46:00,28.9,20.7,29.87,ENE,58,3.0,15.0,71,0.00,,RMK 146.475 MHz QRV !SN!,0.00,WUHU216DAVISVP2,2014-01-15 07:46:00,
2014-01-15 02:51:00,28.9,20.7,29.87,NE,53,5.0,15.0,71,0.00,,RMK 146.475 MHz QRV !SN!,0.00,WUHU216DAVISVP2,2014-01-15 07:51:00,
2014-01-15 02:56:00,28.9,20.7,29.87,ENE,78,3.0,13.0,71,0.00,,RMK 146.475 MHz QRV !SN!,0.00,WUHU216DAVISVP2,2014-01-15 07:56:00,
2014-01-15 03:09:00,29.0,20.8,29.87,NNE,21,4.0,9.0,71,0.00,,RMK 146.475 MHz QRV !SN!,0.00,WUHU216DAVISVP2,2014-01-15 08:09:00,
2014-01-15 03:14:00,29.0,20.8,29.87,ENE,63,4.0,9.0,71,0.00,,RMK 146.475 MHz QRV !SN!,0.00,WUHU216DAVISVP2,2014-01-15 08:14:00,
2014-01-15 03:19:00,29.0,20.8,29.87,East,89,4.0,12.0,71,0.00,,RMK 146.475 MHz QRV !SN!,0.00,WUHU216DAVISVP2,2014-01-15 08:19:00,
2014-01-15 03:24:00,29.0,20.8,29.88,NNW,328,4.0,12.0,71,0.00,,RMK 146.475 MHz QRV !SN!,0.00,WUHU216DAVISVP2,2014-01-15 08:24:00,
2014-01-15 03:29:00,29.0,20.8,29.88,ENE,70,2.0,11.0,71,0.00,,RMK 146.475 MHz QRV !SN!,0.00,WUHU216DAVISVP2,2014-01-15 08:29:00,
2014-01-15 03:34:00,29.0,20.8,29.88,NNE,32,5.0,11.0,71,0.00,,RMK 146.475 MHz QRV !SN!,0.00,WUHU216DAVISVP2,2014-01-15 08:34:00,
2014-01-15 03:39:00,29.0,20.8,29.88,East,81,7.0,11.0,71,0.00,,RMK 146.475 MHz QRV !SN!,0.00,WUHU216DAVISVP2,2014-01-15 08:39:00,
2014-01-15 03:44:00,29.1,20.9,29.88,ENE,70,4.0,10.0,71,0.00,,RMK 146.475 MHz QRV !SN!,0.00,WUHU216DAVISVP2,2014-01-15 08:44:00,
2014-01-15 03:49:00,29.0,20.8,29.88,ENE,70,5.0,11.0,71,0.00,,RMK 146.475 MHz QRV !SN!,0.00,WUHU216DAVISVP2,2014-01-15 08:49:00,
2014-01-15 03:54:00,29.1,20.9,29.89,ENE,72,3.0,11.0,71,0.00,,RMK 146.475 MHz QRV !SN!,0.00,WUHU216DAVISVP2,2014-01-15 08:54:00,
2014-01-15 03:59:00,29.1,20.9,29.89,ENE,65,3.0,10.0,71,0.00,,RMK 146.475 MHz QRV !SN!,0.00,WUHU216DAVISVP2,2014-01-15 08:59:00,
2014-01-15 04:04:00,29.2,21.0,29.89,NE,52,3.0,10.0,71,0.00,,RMK 146.475 MHz QRV !SN!,0.00,WUHU216DAVISVP2,2014-01-15 09:04:00,
2014-01-15 04:09:00,29.2,21.0,29.89,ENE,63,1.0,7.0,71,0.00,,RMK 146.475 MHz QRV !SN!,0.00,WUHU216DAVISVP2,2014-01-15 09:09:00,
2014-01-15 04:14:00,29.2,21.3,29.89,East,83,1.0,7.0,72,0.00,,RMK 146.475 MHz QRV !SN!,0.00,WUHU216DAVISVP2,2014-01-15 09:14:00,
2014-01-15 04:19:00,29.2,21.3,29.89,East,96,2.0,7.0,72,0.00,,RMK 146.475 MHz QRV !SN!,0.00,WUHU216DAVISVP2,2014-01-15 09:19:00,
2014-01-15 04:24:00,29.2,21.0,29.89,ENE,73,5.0,13.0,71,0.00,,RMK 146.475 MHz QRV !SN!,0.00,WUHU216DAVISVP2,2014-01-15 09:24:00,
2014-01-15 04:29:00,29.0,21.1,29.89,NNE,32,1.0,13.0,72,0.00,,RMK 146.475 MHz QRV !SN!,0.00,WUHU216DAVISVP2,2014-01-15 09:29:00,
2014-01-15 04:34:00,28.9,21.1,29.90,ESE,111,4.0,12.0,72,0.00,,RMK 146.475 MHz QRV !SN!,0.00,WUHU216DAVISVP2,2014-01-15 09:34:00,
2014-01-15 04:39:00,28.9,20.4,29.90,East,79,9.0,13.0,70,0.00,,RMK 146.475 MHz QRV !SN!,0.00,WUHU216DAVISVP2,2014-01-15 09:39:00,
2014-01-15 04:44:00,28.7,19.2,29.90,NNE,19,7.0,13.0,67,0.00,,RMK 146.475 MHz QRV !SN!,0.00,WUHU216DAVISVP2,2014-01-15 09:44:00,
2014-01-15 04:49:00,28.4,18.5,29.90,ENE,65,4.0,15.0,66,0.00,,RMK 146.475 MHz QRV !SN!,0.00,WUHU216DAVISVP2,2014-01-15 09:49:00,
2014-01-15 04:54:00,28.3,18.5,29.91,NNE,28,6.0,15.0,66,0.00,,RMK 146.475 MHz QRV !SN!,0.00,WUHU216DAVISVP2,2014-01-15 09:54:00,
2014-01-15 04:59:00,28.2,18.4,29.91,East,101,2.0,13.0,66,0.00,,RMK 146.475 MHz QRV !SN!,0.00,WUHU216DAVISVP2,2014-01-15 09:59:00,
2014-01-15 05:04:00,28.1,18.3,29.91,ENE,66,3.0,13.0,66,0.00,,RMK 146.475 MHz QRV !SN!,0.00,WUHU216DAVISVP2,2014-01-15 10:04:00,
2014-01-15 05:09:00,28.1,18.3,29.91,NNW,344,1.0,10.0,66,0.00,,RMK 146.475 MHz QRV !SN!,0.00,WUHU216DAVISVP2,2014-01-15 10:09:00,
2014-01-15 05:14:00,28.0,18.5,29.91,ENE,60,5.0,9.0,67,0.00,,RMK 146.475 MHz QRV !SN!,0.00,WUHU216DAVISVP2,2014-01-15 10:14:00,
2014-01-15 05:19:00,28.0,18.5,29.91,East,80,1.0,9.0,67,0.00,,RMK 146.475 MHz QRV !SN!,0.00,WUHU216DAVISVP2,2014-01-15 10:19:00,
2014-01-15 05:24:00,28.0,18.5,29.92,ESE,107,4.0,8.0,67,0.00,,RMK 146.475 MHz QRV !SN!,0.00,WUHU216DAVISVP2,2014-01-15 10:24:00,
2014-01-15 05:29:00,28.0,18.5,29.91,NE,50,3.0,8.0,67,0.00,,RMK 146.475 MHz QRV !SN!,0.00,WUHU216DAVISVP2,2014-01-15 10:29:00,
2014-01-15 05:34:00,27.9,18.8,29.92,East,81,3.0,10.0,68,0.00,,RMK 146.475 MHz QRV !SN!,0.00,WUHU216DAVISVP2,2014-01-15 10:34:00,
2014-01-15 05:39:00,27.9,18.8,29.92,East,85,2.0,10.0,68,0.00,,RMK 146.475 MHz QRV !SN!,0.00,WUHU216DAVISVP2,2014-01-15 10:39:00,
2014-01-15 05:44:00,27.9,18.8,29.92,ENE,68,2.0,10.0,68,0.00,,RMK 146.475 MHz QRV !SN!,0.00,WUHU216DAVISVP2,2014-01-15 10:44:00,
2014-01-15 05:49:00,27.9,18.8,29.92,ENE,73,1.0,10.0,68,0.00,,RMK 146.475 MHz QRV !SN!,0.00,WUHU216DAVISVP2,2014-01-15 10:49:00,
2014-01-15 05:54:00,27.9,19.1,29.92,NNE,27,5.0,9.0,69,0.00,,RMK 146.475 MHz QRV !SN!,0.00,WUHU216DAVISVP2,2014-01-15 10:54:00,
2014-01-15 05:59:00,27.9,19.1,29.92,North,9,3.0,9.0,69,0.00,,RMK 146.475 MHz QRV !SN!,0.00,WUHU216DAVISVP2,2014-01-15 10:59:00,
2014-01-15 06:04:00,27.8,19.0,29.92,ENE,63,2.0,11.0,69,0.00,,RMK 146.475 MHz QRV !SN!,0.00,WUHU216DAVISVP2,2014-01-15 11:04:00,
2014-01-15 06:09:00,27.8,19.0,29.92,ESE,108,1.0,11.0,69,0.00,,RMK 146.475 MHz QRV !SN!,0.00,WUHU216DAVISVP2,2014-01-15 11:09:00,
2014-01-15 06:14:00,27.7,19.2,29.92,ENE,68,10.0,11.0,70,0.00,,RMK 146.475 MHz QRV !SN!,0.00,WUHU216DAVISVP2,2014-01-15 11:14:00,
2014-01-15 06:19:00,27.5,18.7,29.92,ESE,112,0.0,10.0,69,0.00,,RMK 146.475 MHz QRV !SN!,0.00,WUHU216DAVISVP2,2014-01-15 11:19:00,
2014-01-15 06:24:00,27.3,18.5,29.93,ENE,73,2.0,12.0,69,0.00,,RMK 146.475 MHz QRV !SN!,0.00,WUHU216DAVISVP2,2014-01-15 11:24:00,
2014-01-15 06:29:00,27.1,18.7,29.93,NE,53,5.0,12.0,70,0.00,,RMK 146.475 MHz QRV !SN!,0.00,WUHU216DAVISVP2,2014-01-15 11:29:00,
2014-01-15 06:34:00,27.1,18.3,29.93,ENE,68,9.0,13.0,69,0.00,,RMK 146.475 MHz QRV !SN!,0.00,WUHU216DAVISVP2,2014-01-15 11:34:00,
2014-01-15 06:39:00,27.0,18.2,29.93,NE,46,8.0,13.0,69,0.00,,RMK 146.475 MHz QRV !SN!,0.00,WUHU216DAVISVP2,2014-01-15 11:39:00,
2014-01-15 06:44:00,26.9,18.1,29.93,East,90,5.0,11.0,69,0.00,,RMK 146.475 MHz QRV !SN!,0.00,WUHU216DAVISVP2,2014-01-15 11:44:00,
2014-01-15 06:49:00,26.8,18.0,29.94,NE,53,5.0,11.0,69,0.00,,RMK 146.475 MHz QRV !SN!,0.00,WUHU216DAVISVP2,2014-01-15 11:49:00,
2014-01-15 06:54:00,26.7,18.3,29.93,ENE,74,2.0,12.0,70,0.00,,RMK 146.475 MHz QRV !SN!,0.00,WUHU216DAVISVP2,2014-01-15 11:54:00,
2014-01-15 06:59:00,26.6,18.2,29.94,East,96,4.0,12.0,70,0.00,,RMK 146.475 MHz QRV !SN!,0.00,WUHU216DAVISVP2,2014-01-15 11:59:00,
2014-01-15 07:04:00,26.7,18.0,29.94,ENE,70,6.0,10.0,69,0.00,,RMK 146.475 MHz QRV !SN!,0.00,WUHU216DAVISVP2,2014-01-15 12:04:00,
2014-01-15 07:09:00,26.7,17.6,29.94,NW,305,9.0,15.0,68,0.00,,RMK 146.475 MHz QRV !SN!,0.00,WUHU216DAVISVP2,2014-01-15 12:09:00,
2014-01-15 07:14:00,26.6,17.5,29.95,ENE,68,11.0,15.0,68,0.00,,RMK 146.475 MHz QRV !SN!,0.00,WUHU216DAVISVP2,2014-01-15 12:14:00,
2014-01-15 07:19:00,26.6,17.5,29.95,NE,51,3.0,13.0,68,0.00,,RMK 146.475 MHz QRV !SN!,0.00,WUHU216DAVISVP2,2014-01-15 12:19:00,
2014-01-15 07:24:00,26.5,17.1,29.95,NNE,32,4.0,13.0,67,0.00,,RMK 146.475 MHz QRV !SN!,0.00,WUHU216DAVISVP2,2014-01-15 12:24:00,
2014-01-15 07:29:00,26.3,15.8,29.96,NNE,16,2.0,18.0,64,0.00,,RMK 146.475 MHz QRV !SN!,0.00,WUHU216DAVISVP2,2014-01-15 12:29:00,
2014-01-15 07:34:00,26.2,16.1,29.96,ENE,65,2.0,18.0,65,0.00,,RMK 146.475 MHz QRV !SN!,0.00,WUHU216DAVISVP2,2014-01-15 12:34:00,
2014-01-15 07:39:00,26.2,16.1,29.96,East,97,2.0,16.0,65,0.00,,RMK 146.475 MHz QRV !SN!,0.00,WUHU216DAVISVP2,2014-01-15 12:39:00,
2014-01-15 07:44:00,26.1,15.9,29.96,ENE,72,7.0,13.0,65,0.00,,RMK 146.475 MHz QRV !SN!,0.00,WUHU216DAVISVP2,2014-01-15 12:44:00,
2014-01-15 07:49:00,26.1,16.3,29.96,ENE,68,9.0,13.0,66,0.00,,RMK 146.475 MHz QRV !SN!,0.00,WUHU216DAVISVP2,2014-01-15 12:49:00,
2014-01-15 07:54:00,26.1,16.3,29.96,ENE,74,2.0,16.0,66,0.00,,RMK 146.475 MHz QRV !SN!,0.00,WUHU216DAVISVP2,2014-01-15 12:54:00,
2014-01-15 07:59:00,26.1,16.3,29.97,SSE,152,5.0,16.0,66,0.00,,RMK 146.475 MHz QRV !SN!,0.00,WUHU216DAVISVP2,2014-01-15 12:59:00,
2014-01-15 08:04:00,26.0,16.3,29.97,ENE,68,3.0,14.0,66,0.00,,RMK 146.475 MHz QRV !SN!,0.00,WUHU216DAVISVP2,2014-01-15 13:04:00,
2014-01-15 08:09:00,25.9,16.5,29.97,East,101,6.0,13.0,67,0.00,,RMK 146.475 MHz QRV !SN!,0.00,WUHU216DAVISVP2,2014-01-15 13:09:00,
2014-01-15 08:14:00,25.9,16.8,29.98,East,84,7.0,13.0,68,0.00,,RMK 146.475 MHz QRV !SN!,0.00,WUHU216DAVISVP2,2014-01-15 13:14:00,
2014-01-15 08:19:00,25.8,16.8,29.98,North,10,9.0,17.0,68,0.00,,RMK 146.475 MHz QRV !SN!,0.00,WUHU216DAVISVP2,2014-01-15 13:19:00,
2014-01-15 08:24:00,25.8,16.8,29.98,ENE,60,4.0,17.0,68,0.00,,RMK 146.475 MHz QRV !SN!,0.00,WUHU216DAVISVP2,2014-01-15 13:24:00,
2014-01-15 08:29:00,25.8,16.8,29.98,NNW,340,4.0,15.0,68,0.00,,RMK 146.475 MHz QRV !SN!,0.00,WUHU216DAVISVP2,2014-01-15 13:29:00,
2014-01-15 08:34:00,25.8,16.1,29.99,ENE,77,5.0,15.0,66,0.00,,RMK 146.475 MHz QRV !SN!,0.00,WUHU216DAVISVP2,2014-01-15 13:34:00,
2014-01-15 08:39:00,25.7,15.6,29.99,NE,41,2.0,15.0,65,0.00,,RMK 146.475 MHz QRV !SN!,0.00,WUHU216DAVISVP2,2014-01-15 13:39:00,
2014-01-15 08:44:00,25.7,15.6,30.00,ENE,70,7.0,14.0,65,0.00,,RMK 146.475 MHz QRV !SN!,0.00,WUHU216DAVISVP2,2014-01-15 13:44:00,
2014-01-15 08:49:00,25.7,15.6,30.00,East,81,6.0,12.0,65,0.00,,RMK 146.475 MHz QRV !SN!,0.00,WUHU216DAVISVP2,2014-01-15 13:49:00,
2014-01-15 08:54:00,25.7,15.6,30.00,North,1,5.0,11.0,65,0.00,,RMK 146.475 MHz QRV !SN!,0.00,WUHU216DAVISVP2,2014-01-15 13:54:00,
2014-01-15 08:59:00,25.7,15.9,30.01,NE,50,3.0,12.0,66,0.00,,RMK 146.475 MHz QRV !SN!,0.00,WUHU216DAVISVP2,2014-01-15 13:59:00,
2014-01-15 09:04:00,25.7,16.3,30.01,NE,47,8.0,12.0,67,0.00,,RMK 146.475 MHz QRV !SN!,0.00,WUHU216DAVISVP2,2014-01-15 14:04:00,
2014-01-15 09:09:00,25.6,16.5,30.01,East,97,5.0,12.0,68,0.00,,RMK 146.475 MHz QRV !SN!,0.00,WUHU216DAVISVP2,2014-01-15 14:09:00,
2014-01-15 09:14:00,25.5,16.7,30.01,NE,44,7.0,16.0,69,0.00,,RMK 146.475 MHz QRV !SN!,0.00,WUHU216DAVISVP2,2014-01-15 14:14:00,
2014-01-15 09:19:00,25.5,17.1,30.01,East,84,9.0,16.0,70,0.00,,RMK 146.475 MHz QRV !SN!,0.00,WUHU216DAVISVP2,2014-01-15 14:19:00,
2014-01-15 09:24:00,25.6,17.2,30.01,ENE,77,4.0,15.0,70,0.00,,RMK 146.475 MHz QRV !SN!,0.00,WUHU216DAVISVP2,2014-01-15 14:24:00,
2014-01-15 09:29:00,25.6,17.2,30.01,ENE,70,3.0,15.0,70,0.00,,RMK 146.475 MHz QRV !SN!,0.00,WUHU216DAVISVP2,2014-01-15 14:29:00,
2014-01-15 09:34:00,25.7,17.6,30.01,ENE,64,6.0,11.0,71,0.00,,RMK 146.475 MHz QRV !SN!,0.00,WUHU216DAVISVP2,2014-01-15 14:34:00,
2014-01-15 09:39:00,25.6,17.6,30.01,ESE,108,2.0,13.0,71,0.00,,RMK 146.475 MHz QRV !SN!,0.00,WUHU216DAVISVP2,2014-01-15 14:39:00,
2014-01-15 09:44:00,25.5,17.8,30.02,East,84,5.0,13.0,72,0.00,,RMK 146.475 MHz QRV !SN!,0.00,WUHU216DAVISVP2,2014-01-15 14:44:00,
2014-01-15 09:49:00,25.5,17.4,30.02,North,7,4.0,12.0,71,0.00,,RMK 146.475 MHz QRV !SN!,0.00,WUHU216DAVISVP2,2014-01-15 14:49:00,
2014-01-15 09:54:00,25.4,17.4,30.02,ENE,63,2.0,17.0,71,0.00,,RMK 146.475 MHz QRV !SN!,0.00,WUHU216DAVISVP2,2014-01-15 14:54:00,
2014-01-15 09:59:00,25.3,16.9,30.02,ENE,66,2.0,17.0,70,0.00,,RMK 146.475 MHz QRV !SN!,0.00,WUHU216DAVISVP2,2014-01-15 14:59:00,
2014-01-15 10:04:00,25.4,16.7,30.02,ENE,70,3.0,16.0,69,0.00,,RMK 146.475 MHz QRV !SN!,0.00,WUHU216DAVISVP2,2014-01-15 15:04:00,
2014-01-15 10:09:00,25.6,16.6,30.03,ESE,106,5.0,16.0,68,0.00,,RMK 146.475 MHz QRV !SN!,0.00,WUHU216DAVISVP2,2014-01-15 15:09:00,
2014-01-15 10:14:00,25.7,16.3,30.03,East,84,7.0,12.0,67,0.00,,RMK 146.475 MHz QRV !SN!,0.00,WUHU216DAVISVP2,2014-01-15 15:14:00,
2014-01-15 10:19:00,26.0,16.3,30.03,NE,56,4.0,12.0,66,0.00,,RMK 146.475 MHz QRV !SN!,0.00,WUHU216DAVISVP2,2014-01-15 15:19:00,
2014-01-15 10:24:00,26.2,15.7,30.03,ENE,70,7.0,13.0,64,0.00,,RMK 146.475 MHz QRV !SN!,0.00,WUHU216DAVISVP2,2014-01-15 15:24:00,
2014-01-15 10:29:00,26.6,16.1,30.03,ENE,58,4.0,14.0,64,0.00,,RMK 146.475 MHz QRV !SN!,0.00,WUHU216DAVISVP2,2014-01-15 15:29:00,
2014-01-15 10:34:00,26.9,16.0,30.03,NW,326,5.0,14.0,63,0.00,,RMK 146.475 MHz QRV !SN!,0.00,WUHU216DAVISVP2,2014-01-15 15:34:00,
2014-01-15 10:39:00,27.0,15.8,30.04,East,83,2.0,13.0,62,0.00,,RMK 146.475 MHz QRV !SN!,0.00,WUHU216DAVISVP2,2014-01-15 15:39:00,
2014-01-15 10:44:00,27.4,16.1,30.04,SSE,150,5.0,18.0,62,0.00,,RMK 146.475 MHz QRV !SN!,0.00,WUHU216DAVISVP2,2014-01-15 15:44:00,
2014-01-15 10:49:00,27.2,15.6,30.04,ESE,116,2.0,18.0,61,0.00,,RMK 146.475 MHz QRV !SN!,0.00,WUHU216DAVISVP2,2014-01-15 15:49:00,
2014-01-15 10:54:00,27.1,15.5,30.04,ENE,70,7.0,17.0,61,0.00,,RMK 146.475 MHz QRV !SN!,0.00,WUHU216DAVISVP2,2014-01-15 15:54:00,
2014-01-15 10:59:00,27.2,15.9,30.04,ENE,62,3.0,11.0,62,0.00,,RMK 146.475 MHz QRV !SN!,0.00,WUHU216DAVISVP2,2014-01-15 15:59:00,
2014-01-15 11:04:00,27.2,15.6,30.04,NE,43,2.0,11.0,61,0.00,,RMK 146.475 MHz QRV !SN!,0.00,WUHU216DAVISVP2,2014-01-15 16:04:00,
2014-01-15 11:09:00,27.0,15.4,30.04,SSE,150,2.0,11.0,61,0.00,,RMK 146.475 MHz QRV !SN!,0.00,WUHU216DAVISVP2,2014-01-15 16:09:00,
2014-01-15 11:14:00,26.9,15.7,30.04,East,97,0.0,12.0,62,0.00,,RMK 146.475 MHz QRV !SN!,0.00,WUHU216DAVISVP2,2014-01-15 16:14:00,
2014-01-15 11:19:00,26.7,15.5,30.04,East,81,2.0,12.0,62,0.00,,RMK 146.475 MHz QRV !SN!,0.00,WUHU216DAVISVP2,2014-01-15 16:19:00,
2014-01-15 11:24:00,26.7,15.8,30.04,NE,45,4.0,15.0,63,0.00,,RMK 146.475 MHz QRV !SN!,0.00,WUHU216DAVISVP2,2014-01-15 16:24:00,
2014-01-15 11:29:00,26.6,14.9,30.04,NNE,20,4.0,15.0,61,0.00,,RMK 146.475 MHz QRV !SN!,0.00,WUHU216DAVISVP2,2014-01-15 16:29:00,
2014-01-15 11:34:00,26.7,15.1,30.04,East,86,3.0,13.0,61,0.00,,RMK 146.475 MHz QRV !SN!,0.00,WUHU216DAVISVP2,2014-01-15 16:34:00,
2014-01-15 11:39:00,26.7,15.5,30.04,NW,316,2.0,13.0,62,0.00,,RMK 146.475 MHz QRV !SN!,0.00,WUHU216DAVISVP2,2014-01-15 16:39:00,
2014-01-15 11:44:00,26.8,15.6,30.03,ENE,63,3.0,11.0,62,0.00,,RMK 146.475 MHz QRV !SN!,0.00,WUHU216DAVISVP2,2014-01-15 16:44:00,
2014-01-15 11:49:00,26.9,15.6,30.03,ESE,120,1.0,10.0,62,0.00,,RMK 146.475 MHz QRV !SN!,0.00,WUHU216DAVISVP2,2014-01-15 16:49:00,
2014-01-15 11:54:00,26.8,15.2,30.03,East,81,6.0,15.0,61,0.00,,RMK 146.475 MHz QRV !SN!,0.00,WUHU216DAVISVP2,2014-01-15 16:54:00,
2014-01-15 11:59:00,26.7,15.1,30.03,SSE,158,1.0,15.0,61,0.00,,RMK 146.475 MHz QRV !SN!,0.00,WUHU216DAVISVP2,2014-01-15 16:59:00,
2014-01-15 12:04:00,26.6,14.9,30.03,ENE,64,2.0,13.0,61,0.00,,RMK 146.475 MHz QRV !SN!,0.00,WUHU216DAVISVP2,2014-01-15 17:04:00,
2014-01-15 12:09:00,26.6,15.0,30.03,NE,46,4.0,14.0,61,0.00,,RMK 146.475 MHz QRV !SN!,0.00,WUHU216DAVISVP2,2014-01-15 17:09:00,
2014-01-15 12:14:00,26.8,15.6,30.03,East,101,2.0,14.0,62,0.00,,RMK 146.475 MHz QRV !SN!,0.00,WUHU216DAVISVP2,2014-01-15 17:14:00,
2014-01-15 12:19:00,27.1,15.4,30.02,NE,37,4.0,12.0,61,0.00,,RMK 146.475 MHz QRV !SN!,0.00,WUHU216DAVISVP2,2014-01-15 17:19:00,
2014-01-15 12:24:00,27.1,15.5,30.02,ENE,66,5.0,12.0,61,0.00,,RMK 146.475 MHz QRV !SN!,0.00,WUHU216DAVISVP2,2014-01-15 17:24:00,
2014-01-15 12:29:00,27.3,16.0,30.02,East,90,1.0,7.0,62,0.00,,RMK 146.475 MHz QRV !SN!,0.00,WUHU216DAVISVP2,2014-01-15 17:29:00,
2014-01-15 12:34:00,27.3,15.7,30.02,ENE,70,1.0,8.0,61,0.00,,RMK 146.475 MHz QRV !SN!,0.00,WUHU216DAVISVP2,2014-01-15 17:34:00,
2014-01-15 12:39:00,27.3,15.7,30.02,East,81,1.0,9.0,61,0.00,,RMK 146.475 MHz QRV !SN!,0.00,WUHU216DAVISVP2,2014-01-15 17:39:00,
2014-01-15 12:44:00,27.2,15.6,30.01,ENE,70,2.0,10.0,61,0.00,,RMK 146.475 MHz QRV !SN!,0.00,WUHU216DAVISVP2,2014-01-15 17:44:00,
2014-01-15 12:49:00,27.3,15.6,30.02,East,94,4.0,10.0,61,0.00,,RMK 146.475 MHz QRV !SN!,0.00,WUHU216DAVISVP2,2014-01-15 17:49:00,
2014-01-15 12:54:00,27.2,15.9,30.01,SE,125,2.0,10.0,62,0.00,,RMK 146.475 MHz QRV !SN!,0.00,WUHU216DAVISVP2,2014-01-15 17:54:00,
2014-01-15 12:59:00,27.1,15.4,30.01,NE,47,9.0,11.0,61,0.00,,RMK 146.475 MHz QRV !SN!,0.00,WUHU216DAVISVP2,2014-01-15 17:59:00,
2014-01-15 13:04:00,27.0,15.7,30.01,ENE,78,4.0,11.0,62,0.00,,RMK 146.475 MHz QRV !SN!,0.00,WUHU216DAVISVP2,2014-01-15 18:04:00,
2014-01-15 13:09:00,27.0,16.1,30.01,ENE,63,4.0,13.0,63,0.00,,RMK 146.475 MHz QRV !SN!,0.00,WUHU216DAVISVP2,2014-01-15 18:09:00,
2014-01-15 13:14:00,27.1,16.2,30.01,ESE,122,2.0,13.0,63,0.00,,RMK 146.475 MHz QRV !SN!,0.00,WUHU216DAVISVP2,2014-01-15 18:14:00,
2014-01-15 13:19:00,27.0,16.1,30.01,ENE,75,5.0,13.0,63,0.00,,RMK 146.475 MHz QRV !SN!,0.00,WUHU216DAVISVP2,2014-01-15 18:19:00,
2014-01-15 13:24:00,26.9,16.4,30.01,East,88,3.0,13.0,64,0.00,,RMK 146.475 MHz QRV !SN!,0.00,WUHU216DAVISVP2,2014-01-15 18:24:00,
2014-01-15 13:29:00,26.9,16.4,30.02,East,91,1.0,11.0,64,0.00,,RMK 146.475 MHz QRV !SN!,0.00,WUHU216DAVISVP2,2014-01-15 18:29:00,
2014-01-15 13:34:00,27.0,16.1,30.01,SSE,159,4.0,11.0,63,0.00,,RMK 146.475 MHz QRV !SN!,0.00,WUHU216DAVISVP2,2014-01-15 18:34:00,
2014-01-15 13:39:00,27.0,16.4,30.01,East,84,0.0,10.0,64,0.00,,RMK 146.475 MHz QRV !SN!,0.00,WUHU216DAVISVP2,2014-01-15 18:39:00,
2014-01-15 13:44:00,27.0,16.1,30.01,East,94,3.0,11.0,63,0.00,,RMK 146.475 MHz QRV !SN!,0.00,WUHU216DAVISVP2,2014-01-15 18:44:00,
2014-01-15 13:49:00,26.9,16.0,30.01,NNE,30,6.0,11.0,63,0.00,,RMK 146.475 MHz QRV !SN!,0.00,WUHU216DAVISVP2,2014-01-15 18:49:00,
2014-01-15 13:54:00,26.9,16.0,30.01,ESE,114,0.0,10.0,63,0.00,,RMK 146.475 MHz QRV !SN!,0.00,WUHU216DAVISVP2,2014-01-15 18:54:00,
2014-01-15 13:59:00,27.0,16.1,30.01,NW,311,2.0,10.0,63,0.00,,RMK 146.475 MHz QRV !SN!,0.00,WUHU216DAVISVP2,2014-01-15 18:59:00,
2014-01-15 14:04:00,27.0,16.1,30.02,ENE,75,2.0,9.0,63,0.00,,RMK 146.475 MHz QRV !SN!,0.00,WUHU216DAVISVP2,2014-01-15 19:04:00,
2014-01-15 14:09:00,26.9,16.0,30.01,East,80,4.0,9.0,63,0.00,,RMK 146.475 MHz QRV !SN!,0.00,WUHU216DAVISVP2,2014-01-15 19:09:00,
2014-01-15 14:14:00,26.8,16.2,30.01,ENE,66,3.0,10.0,64,0.00,,RMK 146.475 MHz QRV !SN!,0.00,WUHU216DAVISVP2,2014-01-15 19:14:00,
2014-01-15 14:19:00,26.7,16.2,30.01,East,92,2.0,10.0,64,0.00,,RMK 146.475 MHz QRV !SN!,0.00,WUHU216DAVISVP2,2014-01-15 19:19:00,
2014-01-15 14:24:00,26.8,16.7,30.02,ENE,59,3.0,9.0,65,0.00,,RMK 146.475 MHz QRV !SN!,0.00,WUHU216DAVISVP2,2014-01-15 19:24:00,
2014-01-15 14:29:00,26.6,16.1,30.02,ENE,67,4.0,9.0,64,0.00,,RMK 146.475 MHz QRV !SN!,0.00,WUHU216DAVISVP2,2014-01-15 19:29:00,
2014-01-15 14:34:00,26.5,16.4,30.02,ENE,57,2.0,8.0,65,0.00,,RMK 146.475 MHz QRV !SN!,0.00,WUHU216DAVISVP2,2014-01-15 19:34:00,
2014-01-15 14:39:00,26.5,16.4,30.02,SSE,148,2.0,8.0,65,0.00,,RMK 146.475 MHz QRV !SN!,0.00,WUHU216DAVISVP2,2014-01-15 19:39:00,
2014-01-15 14:44:00,26.3,16.5,30.02,ENE,64,1.0,8.0,66,0.00,,RMK 146.475 MHz QRV !SN!,0.00,WUHU216DAVISVP2,2014-01-15 19:44:00,
2014-01-15 14:49:00,26.3,16.5,30.02,ESE,115,1.0,7.0,66,0.00,,RMK 146.475 MHz QRV !SN!,0.00,WUHU216DAVISVP2,2014-01-15 19:49:00,
2014-01-15 14:54:00,26.3,16.5,30.02,NE,50,3.0,7.0,66,0.00,,RMK 146.475 MHz QRV !SN!,0.00,WUHU216DAVISVP2,2014-01-15 19:54:00,
2014-01-15 14:59:00,26.5,17.1,30.02,East,94,1.0,7.0,67,0.00,,RMK 146.475 MHz QRV !SN!,0.00,WUHU216DAVISVP2,2014-01-15 19:59:00,
2014-01-15 15:04:00,26.5,17.1,30.02,East,86,4.0,6.0,67,0.00,,RMK 146.475 MHz QRV !SN!,0.00,WUHU216DAVISVP2,2014-01-15 20:04:00,
2014-01-15 15:09:00,26.5,17.0,30.03,East,94,1.0,10.0,67,0.00,,RMK 146.475 MHz QRV !SN!,0.00,WUHU216DAVISVP2,2014-01-15 20:09:00,
2014-01-15 15:14:00,26.3,16.1,30.03,ESE,112,4.0,10.0,65,0.00,,RMK 146.475 MHz QRV !SN!,0.00,WUHU216DAVISVP2,2014-01-15 20:14:00,
2014-01-15 15:19:00,26.2,16.4,30.03,NE,50,2.0,10.0,66,0.00,,RMK 146.475 MHz QRV !SN!,0.00,WUHU216DAVISVP2,2014-01-15 20:19:00,
2014-01-15 15:24:00,26.1,16.3,30.04,ENE,67,5.0,10.0,66,0.00,,RMK 146.475 MHz QRV !SN!,0.00,WUHU216DAVISVP2,2014-01-15 20:24:00,
2014-01-15 15:29:00,26.2,16.4,30.04,SE,127,2.0,9.0,66,0.00,,RMK 146.475 MHz QRV !SN!,0.00,WUHU216DAVISVP2,2014-01-15 20:29:00,
2014-01-15 15:34:00,26.1,16.3,30.04,ESE,115,0.0,9.0,66,0.00,,RMK 146.475 MHz QRV !SN!,0.00,WUHU216DAVISVP2,2014-01-15 20:34:00,
2014-01-15 15:39:00,26.1,16.3,30.04,ENE,66,3.0,8.0,66,0.00,,RMK 146.475 MHz QRV !SN!,0.00,WUHU216DAVISVP2,2014-01-15 20:39:00,
2014-01-15 15:44:00,25.9,16.8,30.04,East,101,3.0,10.0,68,0.00,,RMK 146.475 MHz QRV !SN!,0.00,WUHU216DAVISVP2,2014-01-15 20:44:00,
2014-01-15 15:49:00,25.8,16.8,30.04,SE,124,0.0,10.0,68,0.00,,RMK 146.475 MHz QRV !SN!,0.00,WUHU216DAVISVP2,2014-01-15 20:49:00,
2014-01-15 15:54:00,25.8,16.8,30.04,NE,38,3.0,9.0,68,0.00,,RMK 146.475 MHz QRV !SN!,0.00,WUHU216DAVISVP2,2014-01-15 20:54:00,
2014-01-15 15:59:00,25.8,16.8,30.04,ESE,120,1.0,9.0,68,0.00,,RMK 146.475 MHz QRV !SN!,0.00,WUHU216DAVISVP2,2014-01-15 20:59:00,
2014-01-15 16:04:00,25.8,16.8,30.05,ENE,74,1.0,9.0,68,0.00,,RMK 146.475 MHz QRV !SN!,0.00,WUHU216DAVISVP2,2014-01-15 21:04:00,
2014-01-15 16:09:00,25.8,17.1,30.05,East,86,2.0,8.0,69,0.00,,RMK 146.475 MHz QRV !SN!,0.00,WUHU216DAVISVP2,2014-01-15 21:09:00,
2014-01-15 16:14:00,25.7,17.3,30.05,NE,56,1.0,8.0,70,0.00,,RMK 146.475 MHz QRV !SN!,0.00,WUHU216DAVISVP2,2014-01-15 21:14:00,
2014-01-15 16:19:00,25.8,17.7,30.05,ESE,104,0.0,8.0,71,0.00,,RMK 146.475 MHz QRV !SN!,0.00,WUHU216DAVISVP2,2014-01-15 21:19:00,
2014-01-15 16:24:00,25.9,17.8,30.05,NNW,334,1.0,7.0,71,0.00,,RMK 146.475 MHz QRV !SN!,0.00,WUHU216DAVISVP2,2014-01-15 21:24:00,
2014-01-15 16:29:00,25.8,17.7,30.05,ENE,70,3.0,6.0,71,0.00,,RMK 146.475 MHz QRV !SN!,0.00,WUHU216DAVISVP2,2014-01-15 21:29:00,
2014-01-15 16:34:00,25.7,17.3,30.05,ENE,58,4.0,6.0,70,0.00,,RMK 146.475 MHz QRV !SN!,0.00,WUHU216DAVISVP2,2014-01-15 21:34:00,
2014-01-15 16:39:00,25.7,17.6,30.05,East,90,1.0,6.0,71,0.00,,RMK 146.475 MHz QRV !SN!,0.00,WUHU216DAVISVP2,2014-01-15 21:39:00,
2014-01-15 16:44:00,25.6,17.5,30.05,East,79,3.0,8.0,71,0.00,,RMK 146.475 MHz QRV !SN!,0.00,WUHU216DAVISVP2,2014-01-15 21:44:00,
2014-01-15 16:49:00,25.5,17.8,30.05,ENE,57,4.0,8.0,72,0.00,,RMK 146.475 MHz QRV !SN!,0.00,WUHU216DAVISVP2,2014-01-15 21:49:00,
2014-01-15 16:54:00,25.5,17.8,30.05,East,82,4.0,7.0,72,0.00,,RMK 146.475 MHz QRV !SN!,0.00,WUHU216DAVISVP2,2014-01-15 21:54:00,
2014-01-15 16:59:00,25.4,17.7,30.05,East,88,2.0,7.0,72,0.00,,RMK 146.475 MHz QRV !SN!,0.00,WUHU216DAVISVP2,2014-01-15 21:59:00,
2014-01-15 17:04:00,25.4,17.3,30.06,ENE,65,3.0,7.0,71,0.00,,RMK 146.475 MHz QRV !SN!,0.00,WUHU216DAVISVP2,2014-01-15 22:04:00,
2014-01-15 17:09:00,25.4,17.7,30.06,East,86,1.0,7.0,72,0.00,,RMK 146.475 MHz QRV !SN!,0.00,WUHU216DAVISVP2,2014-01-15 22:09:00,
2014-01-15 17:14:00,25.3,17.9,30.06,NNE,20,3.0,6.0,73,0.00,,RMK 146.475 MHz QRV !SN!,0.00,WUHU216DAVISVP2,2014-01-15 22:14:00,
2014-01-15 17:19:00,25.2,18.1,30.06,East,90,1.0,6.0,74,0.00,,RMK 146.475 MHz QRV !SN!,0.00,WUHU216DAVISVP2,2014-01-15 22:19:00,
2014-01-15 17:24:00,25.1,18.3,30.06,East,84,4.0,6.0,75,0.00,,RMK 146.475 MHz QRV !SN!,0.00,WUHU216DAVISVP2,2014-01-15 22:24:00,
2014-01-15 17:29:00,25.1,18.3,30.06,East,94,6.0,6.0,75,0.00,,RMK 146.475 MHz QRV !SN!,0.00,WUHU216DAVISVP2,2014-01-15 22:29:00,
2014-01-15 17:34:00,25.1,18.3,30.06,East,96,1.0,6.0,75,0.00,,RMK 146.475 MHz QRV !SN!,0.00,WUHU216DAVISVP2,2014-01-15 22:34:00,
2014-01-15 17:39:00,25.0,18.2,30.06,ENE,77,1.0,8.0,75,0.00,,RMK 146.475 MHz QRV !SN!,0.00,WUHU216DAVISVP2,2014-01-15 22:39:00,
2014-01-15 17:44:00,24.9,19.0,30.06,East,84,0.0,8.0,78,0.00,,RMK 146.475 MHz QRV !SN!,0.00,WUHU216DAVISVP2,2014-01-15 22:44:00,
2014-01-15 17:49:00,24.8,18.9,30.06,NE,50,2.0,7.0,78,0.00,,RMK 146.475 MHz QRV !SN!,0.00,WUHU216DAVISVP2,2014-01-15 22:49:00,
2014-01-15 17:54:00,24.7,18.8,30.06,ENE,77,3.0,7.0,78,0.00,,RMK 146.475 MHz QRV !SN!,0.00,WUHU216DAVISVP2,2014-01-15 22:54:00,
2014-01-15 17:59:00,24.7,18.8,30.07,ENE,70,2.0,5.0,78,0.00,,RMK 146.475 MHz QRV !SN!,0.00,WUHU216DAVISVP2,2014-01-15 22:59:00,
2014-01-15 18:04:00,24.6,19.0,30.07,ENE,77,0.0,6.0,79,0.00,,RMK 146.475 MHz QRV !SN!,0.00,WUHU216DAVISVP2,2014-01-15 23:04:00,
2014-01-15 18:09:00,24.7,19.1,30.07,NNE,29,2.0,6.0,79,0.00,,RMK 146.475 MHz QRV !SN!,0.00,WUHU216DAVISVP2,2014-01-15 23:09:00,
2014-01-15 18:14:00,24.7,18.8,30.07,ENE,59,4.0,5.0,78,0.00,,RMK 146.475 MHz QRV !SN!,0.00,WUHU216DAVISVP2,2014-01-15 23:14:00,
2014-01-15 18:19:00,24.7,18.5,30.07,ESE,110,0.0,10.0,77,0.00,,RMK 146.475 MHz QRV !SN!,0.00,WUHU216DAVISVP2,2014-01-15 23:19:00,
2014-01-15 18:24:00,24.8,18.6,30.08,ENE,61,3.0,10.0,77,0.00,,RMK 146.475 MHz QRV !SN!,0.00,WUHU216DAVISVP2,2014-01-15 23:24:00,
2014-01-15 18:29:00,24.8,18.3,30.08,ESE,102,0.0,9.0,76,0.00,,RMK 146.475 MHz QRV !SN!,0.00,WUHU216DAVISVP2,2014-01-15 23:29:00,
2014-01-15 18:34:00,24.8,18.3,30.08,East,81,0.0,9.0,76,0.00,,RMK 146.475 MHz QRV !SN!,0.00,WUHU216DAVISVP2,2014-01-15 23:34:00,
2014-01-15 18:39:00,24.8,18.6,30.08,East,101,1.0,6.0,77,0.00,,RMK 146.475 MHz QRV !SN!,0.00,WUHU216DAVISVP2,2014-01-15 23:39:00,
2014-01-15 18:44:00,24.7,18.8,30.08,ESE,108,1.0,6.0,78,0.00,,RMK 146.475 MHz QRV !SN!,0.00,WUHU216DAVISVP2,2014-01-15 23:44:00,
2014-01-15 18:49:00,24.8,18.9,30.08,SE,141,2.0,7.0,78,0.00,,RMK 146.475 MHz QRV !SN!,0.00,WUHU216DAVISVP2,2014-01-15 23:49:00,
2014-01-15 18:54:00,24.7,18.8,30.08,ENE,70,4.0,7.0,78,0.00,,RMK 146.475 MHz QRV !SN!,0.00,WUHU216DAVISVP2,2014-01-15 23:54:00,
2014-01-15 18:59:00,24.7,19.1,30.08,East,98,0.0,6.0,79,0.00,,RMK 146.475 MHz QRV !SN!,0.00,WUHU216DAVISVP2,2014-01-15 23:59:00,
2014-01-15 19:04:00,24.7,19.1,30.08,ENE,70,1.0,6.0,79,0.00,,RMK 146.475 MHz QRV !SN!,0.00,WUHU216DAVISVP2,2014-01-16 00:04:00,
2014-01-15 19:09:00,24.6,19.0,30.08,SSE,167,1.0,8.0,79,0.00,,RMK 146.475 MHz QRV !SN!,0.00,WUHU216DAVISVP2,2014-01-16 00:09:00,
2014-01-15 19:14:00,24.6,18.7,30.08,East,82,1.0,8.0,78,0.00,,RMK 146.475 MHz QRV !SN!,0.00,WUHU216DAVISVP2,2014-01-16 00:14:00,
2014-01-15 19:19:00,24.6,18.7,30.08,East,82,5.0,8.0,78,0.00,,RMK 146.475 MHz QRV !SN!,0.00,WUHU216DAVISVP2,2014-01-16 00:19:00,
2014-01-15 19:24:00,24.6,18.4,30.08,East,79,2.0,7.0,77,0.00,,RMK 146.475 MHz QRV !SN!,0.00,WUHU216DAVISVP2,2014-01-16 00:24:00,
2014-01-15 19:29:00,24.6,18.4,30.09,East,81,4.0,8.0,77,0.00,,RMK 146.475 MHz QRV !SN!,0.00,WUHU216DAVISVP2,2014-01-16 00:29:00,
2014-01-15 19:34:00,24.6,18.1,30.09,East,99,0.0,8.0,76,0.00,,RMK 146.475 MHz QRV !SN!,0.00,WUHU216DAVISVP2,2014-01-16 00:34:00,
2014-01-15 19:39:00,24.7,18.2,30.09,SE,129,1.0,7.0,76,0.00,,RMK 146.475 MHz QRV !SN!,0.00,WUHU216DAVISVP2,2014-01-16 00:39:00,
2014-01-15 19:44:00,24.8,18.0,30.09,ESE,103,0.0,7.0,75,0.00,,RMK 146.475 MHz QRV !SN!,0.00,WUHU216DAVISVP2,2014-01-16 00:44:00,
2014-01-15 19:49:00,24.8,18.0,30.09,ENE,75,5.0,5.0,75,0.00,,RMK 146.475 MHz QRV !SN!,0.00,WUHU216DAVISVP2,2014-01-16 00:49:00,
2014-01-15 19:54:00,24.8,17.4,30.09,East,91,2.0,5.0,73,0.00,,RMK 146.475 MHz QRV !SN!,0.00,WUHU216DAVISVP2,2014-01-16 00:54:00,
2014-01-15 19:59:00,24.8,17.1,30.09,East,90,0.0,6.0,72,0.00,,RMK 146.475 MHz QRV !SN!,0.00,WUHU216DAVISVP2,2014-01-16 00:59:00,
2014-01-15 20:04:00,24.8,17.1,30.09,SSE,153,0.0,6.0,72,0.00,,RMK 146.475 MHz QRV !SN!,0.00,WUHU216DAVISVP2,2014-01-16 01:04:00,
2014-01-15 20:09:00,24.8,17.1,30.09,SE,142,0.0,6.0,72,0.00,,RMK 146.475 MHz QRV !SN!,0.00,WUHU216DAVISVP2,2014-01-16 01:09:00,
2014-01-15 20:14:00,24.8,17.7,30.09,East,88,0.0,6.0,74,0.00,,RMK 146.475 MHz QRV !SN!,0.00,WUHU216DAVISVP2,2014-01-16 01:14:00,
2014-01-15 20:19:00,24.7,17.6,30.09,East,89,0.0,4.0,74,0.00,,RMK 146.475 MHz QRV !SN!,0.00,WUHU216DAVISVP2,2014-01-16 01:19:00,
2014-01-15 20:24:00,24.6,17.8,30.09,East,86,0.0,4.0,75,0.00,,RMK 146.475 MHz QRV !SN!,0.00,WUHU216DAVISVP2,2014-01-16 01:24:00,
2014-01-15 20:29:00,24.6,18.1,30.09,East,81,0.0,6.0,76,0.00,,RMK 146.475 MHz QRV !SN!,0.00,WUHU216DAVISVP2,2014-01-16 01:29:00,
2014-01-15 20:34:00,24.5,18.0,30.09,East,98,0.0,6.0,76,0.00,,RMK 146.475 MHz QRV !SN!,0.00,WUHU216DAVISVP2,2014-01-16 01:34:00,
2014-01-15 20:39:00,24.4,17.6,30.09,ESE,103,3.0,6.0,75,0.00,,RMK 146.475 MHz QRV !SN!,0.00,WUHU216DAVISVP2,2014-01-16 01:39:00,
2014-01-15 20:44:00,24.4,17.6,30.09,East,87,0.0,6.0,75,0.00,,RMK 146.475 MHz QRV !SN!,0.00,WUHU216DAVISVP2,2014-01-16 01:44:00,
2014-01-15 20:49:00,24.4,17.6,30.09,SE,131,2.0,6.0,75,0.00,,RMK 146.475 MHz QRV !SN!,0.00,WUHU216DAVISVP2,2014-01-16 01:49:00,
2014-01-15 20:54:00,24.3,17.5,30.09,East,89,0.0,6.0,75,0.00,,RMK 146.475 MHz QRV !SN!,0.00,WUHU216DAVISVP2,2014-01-16 01:54:00,
2014-01-15 20:59:00,24.4,17.6,30.09,East,94,0.0,6.0,75,0.00,,RMK 146.475 MHz QRV !SN!,0.00,WUHU216DAVISVP2,2014-01-16 01:59:00,
2014-01-15 21:04:00,24.3,17.5,30.09,ENE,64,2.0,6.0,75,0.00,,RMK 146.475 MHz QRV !SN!,0.00,WUHU216DAVISVP2,2014-01-16 02:04:00,
2014-01-15 21:09:00,24.2,17.5,30.09,ENE,65,1.0,6.0,75,0.00,,RMK 146.475 MHz QRV !SN!,0.00,WUHU216DAVISVP2,2014-01-16 02:09:00,
2014-01-15 21:14:00,24.1,17.0,30.09,ENE,74,3.0,6.0,74,0.00,,RMK 146.475 MHz QRV !SN!,0.00,WUHU216DAVISVP2,2014-01-16 02:14:00,
2014-01-15 21:19:00,24.0,17.0,30.09,East,89,0.0,6.0,74,0.00,,RMK 146.475 MHz QRV !SN!,0.00,WUHU216DAVISVP2,2014-01-16 02:19:00,
2014-01-15 21:24:00,23.9,16.9,30.08,East,80,2.0,6.0,74,0.00,,RMK 146.475 MHz QRV !SN!,0.00,WUHU216DAVISVP2,2014-01-16 02:24:00,
2014-01-15 21:29:00,23.9,16.9,30.08,SE,128,0.0,6.0,74,0.00,,RMK 146.475 MHz QRV !SN!,0.00,WUHU216DAVISVP2,2014-01-16 02:29:00,
2014-01-15 21:35:00,23.9,16.5,30.08,ESE,104,0.0,8.0,73,0.00,,RMK 146.475 MHz QRV !SN!,0.00,WUHU216DAVISVP2,2014-01-16 02:35:00,
2014-01-15 21:39:00,23.9,16.2,30.08,ENE,68,4.0,8.0,72,0.00,,RMK 146.475 MHz QRV !SN!,0.00,WUHU216DAVISVP2,2014-01-16 02:39:00,
2014-01-15 21:44:00,23.8,15.8,30.08,NNE,26,2.0,7.0,71,0.00,,RMK 146.475 MHz QRV !SN!,0.00,WUHU216DAVISVP2,2014-01-16 02:44:00,
2014-01-15 21:49:00,23.8,15.8,30.08,East,79,2.0,7.0,71,0.00,,RMK 146.475 MHz QRV !SN!,0.00,WUHU216DAVISVP2,2014-01-16 02:49:00,
2014-01-15 21:54:00,23.7,15.4,30.08,East,84,6.0,8.0,70,0.00,,RMK 146.475 MHz QRV !SN!,0.00,WUHU216DAVISVP2,2014-01-16 02:54:00,
2014-01-15 21:59:00,23.7,15.4,30.09,ENE,78,2.0,8.0,70,0.00,,RMK 146.475 MHz QRV !SN!,0.00,WUHU216DAVISVP2,2014-01-16 02:59:00,
2014-01-15 22:04:00,23.8,15.5,30.09,SE,138,1.0,8.0,70,0.00,,RMK 146.475 MHz QRV !SN!,0.00,WUHU216DAVISVP2,2014-01-16 03:04:00,
2014-01-15 22:09:00,23.8,15.4,30.09,East,81,1.0,7.0,70,0.00,,RMK 146.475 MHz QRV !SN!,0.00,WUHU216DAVISVP2,2014-01-16 03:09:00,
2014-01-15 22:14:00,23.8,15.2,30.09,North,349,3.0,7.0,69,0.00,,RMK 146.475 MHz QRV !SN!,0.00,WUHU216DAVISVP2,2014-01-16 03:14:00,
2014-01-15 22:19:00,23.8,15.2,30.09,ENE,73,1.0,7.0,69,0.00,,RMK 146.475 MHz QRV !SN!,0.00,WUHU216DAVISVP2,2014-01-16 03:19:00,
2014-01-15 22:24:00,23.7,15.1,30.08,East,79,2.0,6.0,69,0.00,,RMK 146.475 MHz QRV !SN!,0.00,WUHU216DAVISVP2,2014-01-16 03:24:00,
2014-01-15 22:29:00,23.7,14.7,30.08,East,81,1.0,7.0,68,0.00,,RMK 146.475 MHz QRV !SN!,0.00,WUHU216DAVISVP2,2014-01-16 03:29:00,
2014-01-15 22:34:00,23.8,15.2,30.08,ENE,72,3.0,7.0,69,0.00,,RMK 146.475 MHz QRV !SN!,0.00,WUHU216DAVISVP2,2014-01-16 03:34:00,
2014-01-15 22:39:00,23.7,15.1,30.08,East,79,2.0,6.0,69,0.00,,RMK 146.475 MHz QRV !SN!,0.00,WUHU216DAVISVP2,2014-01-16 03:39:00,
2014-01-15 22:44:00,23.7,14.7,30.08,ESE,111,1.0,9.0,68,0.00,,RMK 146.475 MHz QRV !SN!,0.00,WUHU216DAVISVP2,2014-01-16 03:44:00,
2014-01-15 22:49:00,23.7,15.4,30.08,East,80,0.0,9.0,70,0.00,,RMK 146.475 MHz QRV !SN!,0.00,WUHU216DAVISVP2,2014-01-16 03:49:00,
2014-01-15 22:54:00,23.7,15.1,30.08,East,96,0.0,8.0,69,0.00,,RMK 146.475 MHz QRV !SN!,0.00,WUHU216DAVISVP2,2014-01-16 03:54:00,
2014-01-15 22:59:00,23.7,15.1,30.08,East,96,2.0,8.0,69,0.00,,RMK 146.475 MHz QRV !SN!,0.00,WUHU216DAVISVP2,2014-01-16 03:59:00,
2014-01-15 23:04:00,23.6,14.6,30.07,East,86,0.0,6.0,68,0.00,,RMK 146.475 MHz QRV !SN!,0.00,WUHU216DAVISVP2,2014-01-16 04:04:00,
2014-01-15 23:09:00,23.6,15.0,30.07,ENE,77,0.0,6.0,69,0.00,,RMK 146.475 MHz QRV !SN!,0.00,WUHU216DAVISVP2,2014-01-16 04:09:00,
2014-01-15 23:14:00,23.6,14.6,30.07,SSE,153,0.0,5.0,68,0.00,,RMK 146.475 MHz QRV !SN!,0.00,WUHU216DAVISVP2,2014-01-16 04:14:00,
2014-01-15 23:19:00,23.6,14.3,30.07,East,91,0.0,8.0,67,0.00,,RMK 146.475 MHz QRV !SN!,0.00,WUHU216DAVISVP2,2014-01-16 04:19:00,
2014-01-15 23:24:00,23.6,14.0,30.07,ESE,110,1.0,8.0,66,0.00,,RMK 146.475 MHz QRV !SN!,0.00,WUHU216DAVISVP2,2014-01-16 04:24:00,
2014-01-15 23:29:00,23.5,13.2,30.07,ENE,61,1.0,7.0,64,0.00,,RMK 146.475 MHz QRV !SN!,0.00,WUHU216DAVISVP2,2014-01-16 04:29:00,
2014-01-15 23:34:00,23.5,13.2,30.07,East,90,2.0,7.0,64,0.00,,RMK 146.475 MHz QRV !SN!,0.00,WUHU216DAVISVP2,2014-01-16 04:34:00,
2014-01-15 23:39:00,23.4,12.7,30.06,East,84,1.0,7.0,63,0.00,,RMK 146.475 MHz QRV !SN!,0.00,WUHU216DAVISVP2,2014-01-16 04:39:00,
2014-01-15 23:44:00,23.4,13.1,30.06,East,89,2.0,6.0,64,0.00,,RMK 146.475 MHz QRV !SN!,0.00,WUHU216DAVISVP2,2014-01-16 04:44:00,
2014-01-15 23:49:00,23.4,13.4,30.06,ENE,77,0.0,6.0,65,0.00,,RMK 146.475 MHz QRV !SN!,0.00,WUHU216DAVISVP2,2014-01-16 04:49:00,
2014-01-15 23:54:00,23.4,13.0,30.06,NNE,12,2.0,9.0,64,0.00,,RMK 146.475 MHz QRV !SN!,0.00,WUHU216DAVISVP2,2014-01-16 04:54:00,
2014-01-15 23:59:00,23.4,13.1,30.06,East,84,2.0,9.0,64,0.00,,RMK 146.475 MHz QRV !SN!,0.00,WUHU216DAVISVP2,2014-01-16 04:59:00,